Weather History for KAUH - August, 2013

Change the Weather History Date:

Thursday, August 29, 2013

  Actual Average Record
Temperature  
Mean Temperature 80 °F -  
Max Temperature 94 °F 85 °F 101 °F (1970)
Min Temperature 66 °F 60 °F 49 °F (1988)
Cooling Degree Days 14    
Growing Degree Days 30 (Base 50)    
Moisture  
Dew Point 70 °F    
Average Humidity 77    
Maximum Humidity 100    
Minimum Humidity 43    
Precipitation  
Precipitation 0.00 in - - ()
Sea Level Pressure  
Sea Level Pressure 29.98 in    
Wind  
Wind Speed 5 mph (SSE)    
Max Wind Speed 12 mph    
Max Gust Speed 17 mph    
Visibility 10 miles    
Events      
Averages and records for this station are not official NWS values.
T = Trace of Precipitation, MM = Missing Value Source: NWS Daily Summary

Daily Weather History Graph

Daily Weather History Graph

Search for Another Location

Airport or City:

Trip Planner

Search our weather history database for the weather conditions in past years. The results will help you decide how hot, cold, wet, or windy it might be!

Date:

Astronomy

Aug. 29, 2013 Rise Set
Actual Time 6:56 AM CDT 8:08 PM CDT
Civil Twilight 6:27 AM CDT 8:37 PM CDT
Nautical Twilight 5:53 AM CDT 9:10 PM CDT
Astronomical Twilight 5:18 AM CDT 9:46 PM CDT
Moon 12:47 AM CDT (8/29) 3:39 PM CDT (8/29)
Length of Visible Light 14h 09m
Length of Day
13h 12m
Last Quarter, 38% of the Moon is Illuminated
Aug 29
Last Quarter
Sep 5
New
Sep 12
First Quarter
Sep 19
Full
Sep 26
Last Quarter

Hourly Weather History & Observations

Time (CDT) Temp. Heat Index Dew Point Humidity Pressure Visibility Wind Dir Wind Speed Gust Speed Precip Events Conditions
12:15 AM 71.6 °F - 66.6 °F 84% 30.02 in 10.0 mi SSE 4.6 mph - N/A   Clear
12:35 AM 70.9 °F - 67.1 °F 88% 30.02 in 10.0 mi SSE 4.6 mph - N/A   Clear
12:55 AM 70.2 °F - 66.7 °F 89% 30.03 in 10.0 mi South 3.5 mph - N/A   Clear
1:15 AM 69.8 °F - 66.7 °F 90% 30.03 in 10.0 mi SSE 4.6 mph - N/A   Clear
1:35 AM 69.6 °F - 66.9 °F 91% 30.03 in 10.0 mi South 3.5 mph - N/A   Clear
1:55 AM 69.3 °F - 66.7 °F 92% 30.03 in 10.0 mi Calm Calm - N/A   Clear
2:15 AM 69.3 °F - 66.9 °F 92% 30.03 in 10.0 mi South 3.5 mph - N/A   Clear
2:35 AM 68.4 °F - 66.4 °F 93% 30.02 in 10.0 mi SSE 3.5 mph - N/A   Clear
2:55 AM 67.1 °F - 65.7 °F 95% 30.02 in 10.0 mi Calm Calm - N/A   Clear
3:15 AM 66.6 °F - 66.2 °F 99% 30.02 in 10.0 mi ESE 3.5 mph - N/A   Clear
3:35 AM 66.4 °F - 66.4 °F 100% 30.01 in 10.0 mi SE 5.8 mph - N/A   Clear
3:55 AM 66.9 °F - 66.9 °F 100% 30.01 in 10.0 mi SE 5.8 mph - N/A   Clear
4:15 AM 67.1 °F - 67.1 °F 100% 30.01 in 10.0 mi SSE 3.5 mph - N/A   Clear
4:35 AM 68.2 °F - 68.2 °F 100% 30.01 in 10.0 mi SSE 3.5 mph - N/A   Clear
4:55 AM 67.8 °F - 67.5 °F 99% 30.00 in 10.0 mi SSE 4.6 mph - N/A   Clear
5:15 AM 67.8 °F - 67.5 °F 99% 30.00 in 10.0 mi SSE 3.5 mph - N/A   Clear
5:35 AM 68.0 °F - 68.0 °F 100% 30.00 in 10.0 mi SSE 4.6 mph - N/A   Clear
5:55 AM 67.3 °F - 67.3 °F 100% 30.00 in 10.0 mi Calm Calm - N/A   Clear
6:15 AM 67.3 °F - 67.3 °F 100% 30.00 in 10.0 mi SSE 3.5 mph - N/A   Clear
6:35 AM 67.5 °F - 67.5 °F 100% 30.00 in 10.0 mi SSE 3.5 mph - N/A   Clear
6:55 AM 66.7 °F - 66.7 °F 100% 30.00 in 10.0 mi SSE 3.5 mph - N/A   Clear
7:15 AM 67.5 °F - 67.5 °F 100% 30.01 in 10.0 mi SSE 3.5 mph - N/A   Clear
7:35 AM 68.4 °F - 68.4 °F 100% 30.01 in 10.0 mi SSE 4.6 mph - N/A   Clear
7:55 AM 69.8 °F - 69.8 °F 100% 30.01 in 10.0 mi SSE 4.6 mph - N/A   Clear
8:15 AM 71.4 °F - 70.7 °F 98% 30.01 in 10.0 mi SSE 5.8 mph - N/A   Clear
8:35 AM 73.0 °F - 71.2 °F 94% 30.01 in 10.0 mi SSE 8.1 mph - N/A   Clear
8:55 AM 74.7 °F - 71.4 °F 90% 30.01 in 10.0 mi South 5.8 mph - N/A   Clear
9:15 AM 76.5 °F - 71.6 °F 85% 30.01 in 10.0 mi South 6.9 mph - N/A   Clear
9:35 AM 77.5 °F - 71.2 °F 81% 30.01 in 10.0 mi South 6.9 mph - N/A   Clear
9:55 AM 79.3 °F - 71.2 °F 76% 30.01 in 10.0 mi South 8.1 mph - N/A   Clear
10:15 AM 80.2 °F 83.9 °F 71.2 °F 74% 30.01 in 10.0 mi SSW 4.6 mph - N/A   Clear
10:35 AM 81.1 °F 85.0 °F 70.9 °F 71% 30.01 in 10.0 mi South 5.8 mph - N/A   Clear
10:55 AM 82.4 °F 87.0 °F 71.2 °F 69% 30.01 in 10.0 mi SSE 5.8 mph - N/A   Clear
11:15 AM 83.1 °F 88.4 °F 72.1 °F 69% 30.00 in 10.0 mi SSE 6.9 mph - N/A   Clear
11:35 AM 84.4 °F 90.3 °F 72.3 °F 67% 30.01 in 10.0 mi SSE 5.8 mph - N/A   Clear
12:15 PM 86.9 °F 93.3 °F 72.0 °F 61% 30.00 in 10.0 mi SSE 9.2 mph - N/A   Clear
12:55 PM 89.6 °F 96.2 °F 71.4 °F 55% 29.99 in 10.0 mi SSE 8.1 mph - N/A   Clear
1:15 PM 90.3 °F 96.7 °F 71.1 °F 53% 29.98 in 10.0 mi SSE 8.1 mph - N/A   Clear
1:35 PM 91.2 °F 97.5 °F 70.7 °F 51% 29.98 in 10.0 mi South 9.2 mph - N/A   Clear
1:55 PM 92.3 °F 99.2 °F 71.1 °F 50% 29.98 in 10.0 mi South 9.2 mph - N/A   Clear
2:15 PM 93.0 °F 99.0 °F 70.0 °F 47% 29.97 in 10.0 mi SSW 11.5 mph - N/A   Clear
2:35 PM 92.8 °F 98.6 °F 69.8 °F 47% 29.97 in 10.0 mi South 10.4 mph - N/A   Clear
2:55 PM 93.4 °F 99.2 °F 69.8 °F 46% 29.97 in 10.0 mi SSE 11.5 mph 17.3 mph N/A   Clear
3:15 PM 93.2 °F 99.4 °F 70.0 °F 47% 29.96 in 10.0 mi South 11.5 mph - N/A   Clear
3:35 PM 93.6 °F 98.4 °F 68.9 °F 44% 29.96 in 10.0 mi South 10.4 mph - N/A   Clear
3:55 PM 93.9 °F 100.3 °F 70.0 °F 46% 29.96 in 10.0 mi SSE 11.5 mph - N/A   Clear
4:15 PM 93.9 °F 98.6 °F 68.4 °F 43% 29.95 in 10.0 mi South 11.5 mph - N/A   Clear
4:35 PM 93.9 °F 99.1 °F 69.1 °F 44% 29.95 in 10.0 mi South 10.4 mph - N/A   Clear
4:55 PM 93.4 °F 99.2 °F 69.8 °F 46% 29.95 in 10.0 mi South 10.4 mph - N/A   Clear
5:15 PM 93.4 °F 98.6 °F 69.4 °F 45% 29.95 in 10.0 mi South 10.4 mph - N/A   Clear
5:35 PM 93.6 °F 99.5 °F 70.0 °F 46% 29.94 in 10.0 mi SSE 9.2 mph - N/A   Clear
5:55 PM 92.8 °F 98.6 °F 69.6 °F 47% 29.94 in 10.0 mi SSE 9.2 mph - N/A   Clear
6:15 PM 92.3 °F 98.1 °F 70.0 °F 48% 29.93 in 10.0 mi SSE 9.2 mph - N/A   Clear
6:35 PM 91.0 °F 98.2 °F 72.0 °F 53% 29.93 in 10.0 mi SSE 5.8 mph - N/A   Clear
6:55 PM 90.0 °F 96.9 °F 71.6 °F 55% 29.93 in 10.0 mi SSE 5.8 mph - N/A   Clear
7:15 PM 88.2 °F 95.0 °F 72.1 °F 59% 29.92 in 10.0 mi SE 5.8 mph - N/A   Clear
7:35 PM 86.0 °F 93.0 °F 73.0 °F 65% 29.93 in 10.0 mi SE 5.8 mph - N/A   Clear
7:55 PM 83.8 °F 89.8 °F 72.7 °F 69% 29.93 in 10.0 mi SE 4.6 mph - N/A   Clear
8:15 PM 80.6 °F 85.4 °F 73.4 °F 79% 29.93 in 10.0 mi SE 5.8 mph - N/A   Clear
8:35 PM 80.4 °F 84.8 °F 72.9 °F 78% 29.93 in 10.0 mi SE 5.8 mph - N/A   Clear
8:55 PM 77.9 °F - 73.4 °F 86% 29.94 in 10.0 mi SE 4.6 mph - N/A   Clear
9:15 PM 77.2 °F - 72.9 °F 86% 29.95 in 10.0 mi ESE 5.8 mph - N/A   Clear
9:35 PM 76.3 °F - 72.5 °F 88% 29.95 in 10.0 mi ESE 5.8 mph - N/A   Clear
9:55 PM 75.6 °F - 72.1 °F 89% 29.95 in 10.0 mi ESE 5.8 mph - N/A   Clear
10:15 PM 75.7 °F - 72.0 °F 88% 29.95 in 10.0 mi ESE 5.8 mph - N/A   Clear
10:35 PM 74.7 °F - 71.6 °F 90% 29.95 in 10.0 mi SE 5.8 mph - N/A   Clear
10:55 PM 76.8 °F - 71.1 °F 82% 29.95 in 10.0 mi SE 5.8 mph - N/A   Clear
11:15 PM 76.1 °F - 70.7 °F 83% 29.95 in 10.0 mi SSE 4.6 mph - N/A   Clear
11:35 PM 76.6 °F - 70.0 °F 80% 29.95 in 10.0 mi SSE 4.6 mph - N/A   Clear
11:55 PM 76.1 °F - 69.8 °F 81% 29.95 in 10.0 mi SSE 4.6 mph - N/A   Clear